K6OUA-11 Weather Reports


time (UTC)temp
C
wind
direction
speed
KPH
gust
KPH
rain 1hr
cm
rain 24hr
cm
rain mn
cm
humidity
%
barometer
mb
20210927061908 14 180 0.0 0.0 0.00 0.00 0.00 89 1010.9
20210927061608 14 180 0.0 0.0 0.00 0.00 0.00 89 1010.9
20210927061305 14 180 0.0 0.0 0.00 0.00 0.00 90 1010.9
20210927061004 14 180 0.0 0.0 0.00 0.00 0.00 90 1011.1
20210927060101 14 180 0.0 0.0 0.00 0.00 0.00 89 1011.1
20210927055458 13 180 0.0 0.0 0.00 0.00 0.00 89 1011.2
20210927055157 13 180 0.0 0.0 0.00 0.00 0.00 90 1011.1
20210927054556 13 180 0.0 0.0 0.00 0.00 0.00 90 1010.9
20210927054254 13 180 0.0 0.0 0.00 0.00 0.00 90 1010.9
20210927053651 13 180 0.0 0.0 0.00 0.00 0.00 90 1010.9
20210927053350 13 180 0.0 0.0 0.00 0.00 0.00 90 1010.9
20210927053050 13 180 0.0 0.0 0.00 0.00 0.00 90 1010.9
20210927051845 13 180 0.0 0.0 0.00 0.00 0.00 89 1010.9
20210927050642 12 180 0.0 0.0 0.00 0.00 0.00 88 1010.7
20210927045737 12 180 0.0 0.0 0.00 0.00 0.00 87 1010.5
20210927045136 12 180 0.0 0.0 0.00 0.00 0.00 88 1010.4
20210927044835 13 180 0.0 0.0 0.00 0.00 0.00 87 1010.5
20210927044233 13 180 0.0 0.0 0.00 0.00 0.00 87 1010.5
20210927043631 13 180 0.0 0.0 0.00 0.00 0.00 88 1010.5
20210927043329 13 180 0.0 0.0 0.00 0.00 0.00 87 1010.6
20210927043029 13 180 0.0 0.0 0.00 0.00 0.00 87 1010.5
20210927042728 13 180 0.0 0.0 0.00 0.00 0.00 87 1010.5
20210927042426 13 180 0.0 0.0 0.00 0.00 0.00 87 1010.4
20210927042125 13 180 0.0 0.0 0.00 0.00 0.00 87 1010.3
20210927041824 13 180 0.0 0.0 0.00 0.00 0.00 87 1010.3
20210927040620 13 180 0.0 0.0 0.00 0.00 0.00 85 1010.4
20210927040318 13 180 0.0 0.0 0.00 0.00 0.00 86 1010.2
20210927040017 13 180 0.0 0.0 0.00 0.00 0.00 86 1010.3
20210927035717 13 180 0.0 0.0 0.00 0.00 0.00 86 1010.3
20210927035114 13 180 0.0 0.0 0.00 0.00 0.00 85 1010.3
20210927034814 13 180 0.0 0.0 0.00 0.00 0.00 85 1010.3
20210927034512 13 180 0.0 0.0 0.00 0.00 0.00 85 1010.1
20210927034211 14 180 0.0 0.0 0.00 0.00 0.00 85 1010.1
20210927033308 14 180 0.0 0.0 0.00 0.00 0.00 85 1010.0
20210927033005 14 180 0.0 0.0 0.00 0.00 0.00 85 1010.0
20210927032706 14 180 0.0 0.0 0.00 0.00 0.00 86 1010.0
20210927031501 14 180 0.0 0.0 0.00 0.00 0.00 85 1009.9
20210927031200 14 180 0.0 0.0 0.00 0.00 0.00 85 1009.8
20210927030857 14 180 0.0 0.0 0.00 0.00 0.00 85 1009.8
20210927025956 14 180 0.0 0.0 0.00 0.00 0.00 84 1009.8
20210927025655 14 180 0.0 0.0 0.00 0.00 0.00 84 1009.8
20210927025353 14 180 0.0 0.0 0.00 0.00 0.00 84 1009.8
20210927025051 14 180 0.0 0.0 0.00 0.00 0.00 84 1009.8
20210927024454 14 180 0.0 0.0 0.00 0.00 0.00 83 1009.7
20210927024148 14 180 0.0 0.0 0.00 0.00 0.00 83 1009.7
20210927023545 15 180 0.0 0.0 0.00 0.00 0.00 82 1009.7
20210927022944 15 180 0.0 1.6 0.00 0.00 0.00 82 1009.7
20210927022642 15 180 0.0 1.6 0.00 0.00 0.00 82 1009.6
20210927022342 15 180 0.0 1.6 0.00 0.00 0.00 82 1009.6
20210927022042 15 180 0.0 0.0 0.00 0.00 0.00 82 1009.6
20210927021438 15 180 0.0 1.6 0.00 0.00 0.00 81 1009.6
20210927020837 15 180 0.0 0.0 0.00 0.00 0.00 81 1009.6
20210927015934 15 180 1.6 1.6 0.00 0.00 0.00 80 1009.7
20210927015331 15 180 0.0 1.6 0.00 0.00 0.00 79 1009.6
20210927015030 16 180 0.0 0.0 0.00 0.00 0.00 79 1009.7
20210927014428 16 180 0.0 1.6 0.00 0.00 0.00 79 1009.6
20210927013525 16 180 1.6 3.2 0.00 0.00 0.00 79 1009.6
20210927013224 16 180 1.6 3.2 0.00 0.00 0.00 78 1009.7
20210927012621 16 180 1.6 1.6 0.00 0.00 0.00 77 1009.8
20210927012320 16 180 1.6 1.6 0.00 0.00 0.00 77 1009.7
20210927012019 16 180 1.6 1.6 0.00 0.00 0.00 77 1009.8
20210927011718 16 180 1.6 3.2 0.00 0.00 0.00 77 1009.7
20210927011418 16 180 1.6 3.2 0.00 0.00 0.00 77 1009.8
20210927011115 16 180 1.6 3.2 0.00 0.00 0.00 77 1009.6
20210927010815 17 180 3.2 4.8 0.00 0.00 0.00 76 1009.7
20210927010513 17 180 1.6 4.8 0.00 0.00 0.00 76 1009.6
20210927005007 17 180 4.8 6.4 0.00 0.00 0.00 75 1009.7
20210927004707 17 180 4.8 4.8 0.00 0.00 0.00 75 1009.7
20210927004405 17 180 1.6 6.4 0.00 0.00 0.00 75 1009.7
20210927003803 18 180 3.2 8.0 0.00 0.00 0.00 74 1009.8
20210927003503 18 180 4.8 6.4 0.00 0.00 0.00 74 1009.8
20210927003200 18 180 4.8 6.4 0.00 0.00 0.00 73 1009.7
20210927002900 18 180 4.8 6.4 0.00 0.00 0.00 74 1009.9
20210927002258 18 180 3.2 6.4 0.00 0.00 0.00 73 1009.9
20210927001957 18 180 6.4 6.4 0.00 0.00 0.00 73 1010.0
20210927001355 18 180 3.2 6.4 0.00 0.00 0.00 72 1010.1
20210927001053 18 180 6.4 6.4 0.00 0.00 0.00 72 1010.0
20210927000756 19 180 4.8 6.4 0.00 0.00 0.00 72 1010.1
20210927000150 19 180 3.2 6.4 0.00 0.00 0.00 72 1010.0
20210926235847 19 180 4.8 4.8 0.00 0.00 0.00 72 1009.9
20210926235548 19 180 3.2 6.4 0.00 0.00 0.00 72 1009.9
20210926234946 19 180 8.0 9.7 0.00 0.00 0.00 72 1009.9
20210926234343 19 180 1.6 6.4 0.00 0.00 0.00 71 1010.0
20210926233440 19 180 3.2 9.7 0.00 0.00 0.00 71 1010.0
20210926232543 19 180 8.0 9.7 0.00 0.00 0.00 71 1010.0
20210926231934 19 180 6.4 12.9 0.00 0.00 0.00 71 1010.0
20210926231634 19 180 11.3 12.9 0.00 0.00 0.00 70 1009.8
20210926231332 19 180 6.4 9.7 0.00 0.00 0.00 70 1010.0
20210926231031 19 180 9.7 11.3 0.00 0.00 0.00 70 1010.0
20210926230731 20 180 11.3 11.3 0.00 0.00 0.00 70 1009.8
20210926230428 20 180 6.4 16.1 0.00 0.00 0.00 69 1009.8
20210926230127 20 315 4.8 16.1 0.00 0.00 0.00 70 1009.8
20210926225225 20 315 8.0 16.1 0.00 0.00 0.00 68 1009.8
20210926224320 20 180 8.0 16.1 0.00 0.00 0.00 68 1009.8
20210926224020 20 180 9.7 16.1 0.00 0.00 0.00 68 1009.7
20210926223719 20 180 12.9 14.5 0.00 0.00 0.00 67 1009.8
20210926223418 21 180 6.4 12.9 0.00 0.00 0.00 67 1009.7
20210926223115 21 180 12.9 12.9 0.00 0.00 0.00 67 1009.6
20210926222814 21 180 6.4 9.7 0.00 0.00 0.00 66 1009.7
20210926222513 21 180 6.4 9.7 0.00 0.00 0.00 66 1009.6
20210926222212 21 180 8.0 9.7 0.00 0.00 0.00 66 1009.7
20210926221911 21 180 4.8 12.9 0.00 0.00 0.00 65 1009.8
20210926220708 22 180 3.2 9.7 0.00 0.00 0.00 64 1009.8
20210926220405 22 180 8.0 11.3 0.00 0.00 0.00 64 1009.9
20210926220104 22 180 8.0 11.3 0.00 0.00 0.00 64 1009.8
20210926215503 22 180 9.7 11.3 0.00 0.00 0.00 63 1009.7
20210926215203 22 180 11.3 14.5 0.00 0.00 0.00 63 1009.7
20210926214902 22 180 8.0 9.7 0.00 0.00 0.00 63 1009.7
20210926214559 22 180 3.2 11.3 0.00 0.00 0.00 63 1009.6
20210926213958 22 270 8.0 11.3 0.00 0.00 0.00 61 1009.6
20210926213445 23 180 4.8 11.3 0.00 0.00 0.00 62 1009.6
20210926213356 23 180 4.8 11.3 0.00 0.00 0.00 62 1009.6
20210926213054 23 180 9.7 9.7 0.00 0.00 0.00 61 1009.7
20210926212453 23 180 4.8 11.3 0.00 0.00 0.00 62 1009.7
20210926212152 23 180 9.7 9.7 0.00 0.00 0.00 62 1009.8
20210926211931 23 180 8.0 9.7 0.00 0.00 0.00 62 1009.7
20210926211850 23 180 8.0 9.7 0.00 0.00 0.00 62 1009.7
20210926211249 23 225 4.8 9.7 0.00 0.00 0.00 62 1009.7
20210926210948 23 315 6.4 11.3 0.00 0.00 0.00 62 1009.7
20210926210134 23 315 9.7 14.5 0.00 0.00 0.00 62 1009.7
20210926210043 23 315 9.7 14.5 0.00 0.00 0.00 62 1009.7
20210926205743 23 216 9.7 11.3 0.00 0.00 0.00 62 1009.8
20210926205141 23 180 6.4 12.9 0.00 0.00 0.00 62 1009.9
20210926204939 23 180 1.6 11.3 0.00 0.00 0.00 63 1009.9
20210926204840 23 180 1.6 11.3 0.00 0.00 0.00 63 1009.9
20210926202431 23 180 11.3 16.1 0.00 0.00 0.00 63 1010.0
20210926202129 23 180 8.0 11.3 0.00 0.00 0.00 63 1010.1
20210926201829 23 180 3.2 11.3 0.00 0.00 0.00 64 1010.0
20210926201527 23 180 4.8 8.0 0.00 0.00 0.00 64 1010.1
20210926201225 22 180 3.2 6.4 0.00 0.00 0.00 65 1010.2
20210926200624 22 180 8.0 14.5 0.00 0.00 0.00 65 1010.1
20210926200323 22 180 1.6 8.0 0.00 0.00 0.00 65 1010.2
20210926200023 22 180 6.4 9.7 0.00 0.00 0.00 65 1010.4
20210926195720 22 180 4.8 12.9 0.00 0.00 0.00 65 1010.4
20210926195420 22 180 8.0 12.9 0.00 0.00 0.00 65 1010.4
20210926194518 22 315 6.4 19.3 0.00 0.00 0.00 66 1010.5
20210926193914 22 180 4.8 14.5 0.00 0.00 0.00 66 1010.5
20210926193613 22 180 9.7 17.7 0.00 0.00 0.00 66 1010.5
20210926193009 22 180 8.0 9.7 0.00 0.00 0.00 67 1010.7
20210926191602 22 180 6.4 12.9 0.00 0.00 0.00 68 1010.7
20210926191505 22 180 6.4 12.9 0.00 0.00 0.00 68 1010.7
20210926191245 22 180 6.4 9.7 0.00 0.00 0.00 68 1010.8
20210926191204 22 180 6.4 9.7 0.00 0.00 0.00 68 1010.8
20210926190903 22 180 6.4 12.9 0.00 0.00 0.00 69 1010.8
20210926190602 22 180 9.7 14.5 0.00 0.00 0.00 68 1010.9
20210926190301 22 180 6.4 8.0 0.00 0.00 0.00 70 1010.8
20210926190000 22 180 0.0 9.7 0.00 0.00 0.00 70 1010.9
20210926185449 21 180 0.0 3.2 0.00 0.00 0.00 71 1011.0
20210926185357 21 180 0.0 3.2 0.00 0.00 0.00 71 1011.0
20210926184534 21 180 1.6 9.7 0.00 0.00 0.00 73 1010.9
20210926184454 21 180 1.6 9.7 0.00 0.00 0.00 73 1010.9
20210926184153 21 180 0.0 6.4 0.00 0.00 0.00 72 1010.8
20210926183853 21 180 3.2 9.7 0.00 0.00 0.00 72 1010.9
20210926183549 21 180 1.6 11.3 0.00 0.00 0.00 73 1011.0
20210926182948 21 180 4.8 6.4 0.00 0.00 0.00 75 1011.1
20210926182345 21 180 4.8 6.4 0.00 0.00 0.00 75 1011.1
20210926181445 21 180 4.8 8.0 0.00 0.00 0.00 76 1011.3
20210926181225 20 180 0.0 8.0 0.00 0.00 0.00 77 1011.3
20210926181141 20 180 0.0 8.0 0.00 0.00 0.00 77 1011.3
20210926180540 20 180 1.6 4.8 0.00 0.00 0.00 78 1011.3
20210926180238 20 180 4.8 4.8 0.00 0.00 0.00 79 1011.4
20210926180026 20 180 1.6 6.4 0.00 0.00 0.00 80 1011.3
20210926175937 20 180 1.6 6.4 0.00 0.00 0.00 80 1011.3
20210926175636 20 180 0.0 6.4 0.00 0.00 0.00 80 1011.3
20210926175034 20 180 4.8 6.4 0.00 0.00 0.00 82 1011.4
20210926174513 19 180 0.0 3.2 0.00 0.00 0.00 84 1011.4
20210926174432 19 180 0.0 3.2 0.00 0.00 0.00 84 1011.4
20210926173528 18 180 0.0 3.2 0.00 0.00 0.00 85 1011.4
20210926173228 18 180 0.0 4.8 0.00 0.00 0.00 85 1011.4
20210926172926 18 180 0.0 6.4 0.00 0.00 0.00 86 1011.3
20210926172625 18 180 1.6 4.8 0.00 0.00 0.00 86 1011.3
20210926172324 18 180 1.6 8.0 0.00 0.00 0.00 86 1011.3
20210926172115 18 180 3.2 6.4 0.00 0.00 0.00 87 1011.3
20210926172023 18 180 3.2 6.4 0.00 0.00 0.00 87 1011.3
20210926171200 17 180 0.0 1.6 0.00 0.00 0.00 88 1011.4
20210926171120 17 180 0.0 1.6 0.00 0.00 0.00 88 1011.4
20210926170917 17 180 0.0 1.6 0.00 0.00 0.00 89 1011.4
20210926170818 17 180 0.0 1.6 0.00 0.00 0.00 89 1011.4
20210926170516 17 180 0.0 1.6 0.00 0.00 0.00 88 1011.3
20210926170217 17 180 0.0 0.0 0.00 0.00 0.00 89 1011.6
20210926165916 17 180 0.0 0.0 0.00 0.00 0.00 89 1011.5
20210926165011 16 180 0.0 0.0 0.00 0.00 0.00 91 1011.4
20210926164410 16 180 0.0 3.2 0.00 0.00 0.00 91 1011.2
20210926164205 16 180 0.0 1.6 0.00 0.00 0.00 91 1011.2
20210926164108 16 180 0.0 1.6 0.00 0.00 0.00 91 1011.2
20210926163806 16 180 0.0 1.6 0.00 0.00 0.00 91 1011.1
20210926163506 16 180 0.0 0.0 0.00 0.00 0.00 91 1011.2
20210926162651 16 180 0.0 0.0 0.00 0.00 0.00 92 1011.1
20210926162603 16 180 0.0 0.0 0.00 0.00 0.00 92 1011.1
20210926162305 15 180 0.0 3.2 0.00 0.00 0.00 92 1011.1
20210926162052 15 180 0.0 1.6 0.00 0.00 0.00 92 1011.1
20210926162000 15 180 0.0 1.6 0.00 0.00 0.00 92 1011.1
20210926161659 15 180 0.0 0.0 0.00 0.00 0.00 92 1011.1
20210926161453 15 180 0.0 1.6 0.00 0.00 0.00 92 1011.1
20210926161359 15 180 0.0 1.6 0.00 0.00 0.00 92 1011.1
20210926161058 15 180 0.0 4.8 0.00 0.00 0.00 92 1011.1
20210926160854 15 180 1.6 4.8 0.00 0.00 0.00 93 1011.1
20210926160756 15 180 1.6 4.8 0.00 0.00 0.00 93 1011.1
20210926160538 15 180 3.2 4.8 0.00 0.00 0.00 93 1011.0
20210926160456 15 180 3.2 4.8 0.00 0.00 0.00 93 1011.0
20210926160154 15 180 4.8 4.8 0.00 0.00 0.00 93 1010.9
20210926153741 15 180 0.0 0.0 0.00 0.00 0.00 94 1010.8
20210926153537 15 180 0.0 0.0 0.00 0.00 0.00 94 1010.7
20210926153438 15 180 0.0 0.0 0.00 0.00 0.00 94 1010.7
20210926153137 15 180 0.0 0.0 0.00 0.00 0.00 94 1010.7
20210926152936 15 180 0.0 0.0 0.00 0.00 0.00 94 1010.7
20210926152836 15 180 0.0 0.0 0.00 0.00 0.00 94 1010.7
20210926152536 15 180 0.0 0.0 0.00 0.00 0.00 94 1010.6
20210926152235 15 180 0.0 4.8 0.00 0.00 0.00 94 1010.7
20210926152021 15 180 0.0 4.8 0.00 0.00 0.00 94 1010.7
20210926151933 15 180 0.0 4.8 0.00 0.00 0.00 94 1010.7
20210926151421 15 180 0.0 1.6 0.00 0.00 0.00 95 1010.6
20210926151330 15 180 0.0 1.6 0.00 0.00 0.00 95 1010.6
20210926151030 14 180 0.0 1.6 0.00 0.00 0.00 95 1010.5
20210926150824 14 180 0.0 0.0 0.00 0.00 0.00 95 1010.5
20210926150729 14 180 0.0 0.0 0.00 0.00 0.00 95 1010.5
20210926150226 14 180 0.0 1.6 0.00 0.00 0.00 95 1010.4
20210926150127 14 180 0.0 1.6 0.00 0.00 0.00 95 1010.4
20210926145908 14 180 0.0 0.0 0.00 0.00 0.00 95 1010.6
20210926145825 14 180 0.0 0.0 0.00 0.00 0.00 95 1010.6
20210926145525 14 180 0.0 0.0 0.00 0.00 0.00 95 1010.4
20210926145309 14 180 0.0 0.0 0.00 0.00 0.00 95 1010.5
20210926145224 14 180 0.0 0.0 0.00 0.00 0.00 95 1010.5
20210926144923 14 180 0.0 0.0 0.00 0.00 0.00 95 1010.6
20210926143718 14 180 0.0 0.0 0.00 0.00 0.00 95 1010.6
20210926143417 14 180 0.0 0.0 0.00 0.00 0.00 95 1010.7
20210926143116 13 180 0.0 0.0 0.00 0.00 0.00 95 1010.7
20210926142515 13 180 0.0 0.0 0.00 0.00 0.00 95 1010.7
20210926142213 13 180 0.0 0.0 0.00 0.00 0.00 95 1010.8
20210926140702 13 180 0.0 0.0 0.00 0.00 0.00 95 1010.7
20210926140059 13 180 0.0 0.0 0.00 0.00 0.00 95 1010.7
20210926135759 13 180 0.0 0.0 0.00 0.00 0.00 95 1010.7
20210926135458 13 180 0.0 0.0 0.00 0.00 0.00 95 1010.7
20210926135237 13 180 0.0 0.0 0.00 0.00 0.00 95 1010.7
20210926135157 13 180 0.0 0.0 0.00 0.00 0.00 95 1010.7
20210926134856 13 180 0.0 0.0 0.00 0.00 0.00 95 1010.7
20210926134553 13 180 0.0 0.0 0.00 0.00 0.00 95 1010.6
20210926134255 13 180 0.0 0.0 0.00 0.00 0.00 95 1010.5
20210926132447 13 180 0.0 0.0 0.00 0.00 0.00 95 1010.5
20210926131928 13 180 0.0 0.0 0.00 0.00 0.00 95 1010.5
20210926131844 13 180 0.0 0.0 0.00 0.00 0.00 95 1010.5
20210926131545 13 180 0.0 0.0 0.00 0.00 0.00 95 1010.4
20210926131243 13 180 0.0 0.0 0.00 0.00 0.00 94 1010.5
20210926130729 13 180 0.0 0.0 0.00 0.00 0.00 95 1010.3
20210926130639 13 180 0.0 0.0 0.00 0.00 0.00 95 1010.3
20210926130038 13 180 0.0 0.0 0.00 0.00 0.00 94 1010.3
20210926125736 13 180 0.0 0.0 0.00 0.00 0.00 95 1010.2
20210926125530 13 180 0.0 0.0 0.00 0.00 0.00 95 1010.3
20210926125434 13 180 0.0 0.0 0.00 0.00 0.00 95 1010.3
20210926125214 13 180 0.0 0.0 0.00 0.00 0.00 95 1010.1
20210926125133 13 180 0.0 0.0 0.00 0.00 0.00 95 1010.1
20210926124931 13 180 0.0 0.0 0.00 0.00 0.00 94 1010.0
20210926124832 13 180 0.0 0.0 0.00 0.00 0.00 94 1010.0
20210926124533 13 180 0.0 0.0 0.00 0.00 0.00 95 1010.1
20210926124231 13 180 0.0 0.0 0.00 0.00 0.00 94 1010.2
20210926124016 13 180 0.0 0.0 0.00 0.00 0.00 95 1010.1
20210926123930 13 180 0.0 0.0 0.00 0.00 0.00 95 1010.1
20210926123628 13 180 0.0 0.0 0.00 0.00 0.00 95 1010.2
20210926123417 13 180 0.0 0.0 0.00 0.00 0.00 95 1010.2
20210926123327 13 180 0.0 0.0 0.00 0.00 0.00 95 1010.2
20210926123026 13 180 0.0 0.0 0.00 0.00 0.00 95 1010.1
20210926122818 13 180 0.0 0.0 0.00 0.00 0.00 95 1010.0
20210926122725 13 180 0.0 0.0 0.00 0.00 0.00 95 1010.0
20210926122425 13 180 0.0 0.0 0.00 0.00 0.00 95 1010.1
20210926121620 13 180 0.0 0.0 0.00 0.00 0.00 95 1010.1
20210926121520 13 180 0.0 0.0 0.00 0.00 0.00 95 1010.1
20210926121304 13 180 0.0 1.6 0.00 0.00 0.00 94 1010.0
20210926121219 13 180 0.0 1.6 0.00 0.00 0.00 94 1010.0
20210926120919 13 180 0.0 0.0 0.00 0.00 0.00 95 1010.0
20210926120317 13 180 0.0 0.0 0.00 0.00 0.00 94 1010.0
20210926115715 13 180 0.0 0.0 0.00 0.00 0.00 94 1010.0
20210926115414 13 180 0.0 0.0 0.00 0.00 0.00 95 1010.1
20210926115112 13 180 0.0 0.0 0.00 0.00 0.00 94 1010.1
20210926114911 13 180 0.0 0.0 0.00 0.00 0.00 94 1010.0
20210926114810 13 180 0.0 0.0 0.00 0.00 0.00 94 1010.0
20210926114552 13 180 0.0 1.6 0.00 0.00 0.00 94 1009.9
20210926114509 13 180 0.0 1.6 0.00 0.00 0.00 94 1009.9
20210926114208 13 180 0.0 1.6 0.00 0.00 0.00 95 1010.1
20210926113607 13 180 0.0 1.6 0.00 0.00 0.00 94 1010.0
20210926112402 13 180 3.2 4.8 0.00 0.00 0.00 94 1009.9
20210926112157 13 180 0.0 4.8 0.00 0.00 0.00 94 1010.0
20210926112100 13 180 0.0 4.8 0.00 0.00 0.00 94 1010.0
20210926111558 13 180 1.6 3.2 0.00 0.00 0.00 95 1009.9
20210926111459 13 180 1.6 3.2 0.00 0.00 0.00 95 1009.9
20210926111242 13 180 0.0 0.0 0.00 0.00 0.00 95 1010.1
20210926111158 13 180 0.0 0.0 0.00 0.00 0.00 95 1010.1
20210926110856 13 180 0.0 0.0 0.00 0.00 0.00 95 1010.0
20210926110555 13 180 0.0 0.0 0.00 0.00 0.00 94 1009.9
20210926105954 13 180 0.0 0.0 0.00 0.00 0.00 94 1009.9
20210926105651 13 180 0.0 0.0 0.00 0.00 0.00 93 1009.9
20210926105444 13 180 0.0 0.0 0.00 0.00 0.00 94 1009.9
20210926105351 13 180 0.0 0.0 0.00 0.00 0.00 94 1009.9
20210926105051 13 180 0.0 0.0 0.00 0.00 0.00 94 1009.9
20210926104749 13 180 0.0 0.0 0.00 0.00 0.00 94 1009.9
20210926104448 13 180 0.0 0.0 0.00 0.00 0.00 93 1009.9
20210926104146 13 180 0.0 0.0 0.00 0.00 0.00 94 1010.0
20210926103545 13 180 0.0 0.0 0.00 0.00 0.00 93 1010.1
20210926102941 13 180 0.0 0.0 0.00 0.00 0.00 93 1010.1
20210926102732 13 180 0.0 0.0 0.00 0.00 0.00 93 1010.1
20210926102640 13 180 0.0 0.0 0.00 0.00 0.00 93 1010.1
20210926102038 13 180 0.0 0.0 0.00 0.00 0.00 93 1010.2
20210926100234 13 180 0.0 0.0 0.00 0.00 0.00 93 1010.2
20210926100021 13 180 0.0 0.0 0.00 0.00 0.00 93 1010.2
20210926095931 13 180 0.0 0.0 0.00 0.00 0.00 93 1010.2
20210926095629 13 180 0.0 0.0 0.00 0.00 0.00 93 1010.1
20210926095027 13 180 0.0 0.0 0.00 0.00 0.00 93 1010.1
20210926094727 13 180 0.0 0.0 0.00 0.00 0.00 93 1010.1
20210926093523 13 180 0.0 1.6 0.00 0.00 0.00 93 1010.1
20210926093220 13 180 0.0 1.6 0.00 0.00 0.00 93 1010.0
20210926092319 13 180 1.6 6.4 0.00 0.00 0.00 93 1010.0
20210926092111 13 180 3.2 4.8 0.00 0.00 0.00 93 1010.1
20210926092017 13 180 3.2 4.8 0.00 0.00 0.00 93 1010.1
20210926091715 13 180 0.0 1.6 0.00 0.00 0.00 93 1010.0
20210926091511 13 180 0.0 0.0 0.00 0.00 0.00 93 1010.0
20210926091414 13 180 0.0 0.0 0.00 0.00 0.00 93 1010.0
20210926091156 13 180 0.0 0.0 0.00 0.00 0.00 93 1010.0
20210926091113 13 180 0.0 0.0 0.00 0.00 0.00 93 1010.0
20210926090557 13 180 1.6 3.2 0.00 0.00 0.00 92 1010.0
20210926090511 13 180 1.6 3.2 0.00 0.00 0.00 92 1010.0
20210926090211 13 180 1.6 4.8 0.00 0.00 0.00 93 1010.0
20210926085957 13 180 0.0 4.8 0.00 0.00 0.00 92 1009.9
20210926085908 13 180 0.0 4.8 0.00 0.00 0.00 92 1009.9
20210926085607 13 180 0.0 6.4 0.00 0.00 0.00 92 1010.1
20210926085308 13 180 0.0 4.8 0.00 0.00 0.00 92 1010.1
20210926085007 13 180 1.6 1.6 0.00 0.00 0.00 92 1010.2
20210926084705 13 180 1.6 1.6 0.00 0.00 0.00 92 1010.2
20210926084200 13 180 1.6 1.6 0.00 0.00 0.00 92 1010.1
20210926084103 13 180 1.6 1.6 0.00 0.00 0.00 92 1010.1
20210926083802 13 180 0.0 0.0 0.00 0.00 0.00 92 1010.1
20210926083501 13 180 0.0 0.0 0.00 0.00 0.00 92 1010.1
20210926082646 13 180 0.0 1.6 0.00 0.00 0.00 92 1010.0
20210926082556 13 180 0.0 1.6 0.00 0.00 0.00 92 1010.0
20210926081654 13 180 1.6 4.8 0.00 0.00 0.00 91 1010.0
20210926081353 13 180 1.6 4.8 0.00 0.00 0.00 92 1009.9
20210926081052 13 180 1.6 4.8 0.00 0.00 0.00 92 1009.9
20210926080749 13 180 3.2 6.4 0.00 0.00 0.00 92 1009.8
20210926075927 13 180 1.6 4.8 0.00 0.00 0.00 92 1009.8
20210926075842 13 180 1.6 4.8 0.00 0.00 0.00 92 1009.8
20210926075327 13 180 3.2 4.8 0.00 0.00 0.00 91 1009.8
20210926075240 13 180 3.2 4.8 0.00 0.00 0.00 91 1009.8
20210926074939 13 180 3.2 3.2 0.00 0.00 0.00 91 1009.8
20210926074730 13 180 0.0 3.2 0.00 0.00 0.00 91 1009.9
20210926074638 13 180 0.0 3.2 0.00 0.00 0.00 91 1009.9
20210926074336 13 180 0.0 0.0 0.00 0.00 0.00 91 1009.8
20210926073530 13 180 0.0 1.6 0.00 0.00 0.00 91 1009.5
20210926073433 13 180 0.0 1.6 0.00 0.00 0.00 91 1009.5
20210926073133 13 180 1.6 4.8 0.00 0.00 0.00 90 1009.5
20210926072832 13 180 1.6 1.6 0.00 0.00 0.00 91 1009.4
20210926072016 13 180 1.6 1.6 0.00 0.00 0.00 90 1009.6
20210926071927 13 180 1.6 1.6 0.00 0.00 0.00 90 1009.6
20210926071020 13 180 1.6 3.2 0.00 0.00 0.00 90 1009.5
20210926070810 13 180 1.6 3.2 0.00 0.00 0.00 90 1009.5
20210926070718 13 180 1.6 3.2 0.00 0.00 0.00 90 1009.5
20210926070416 13 180 1.6 3.2 0.00 0.00 0.00 90 1009.6
20210926065855 13 180 0.0 3.2 0.00 0.00 0.00 89 1009.4
20210926065815 13 180 0.0 3.2 0.00 0.00 0.00 89 1009.4
20210926065515 13 180 1.6 3.2 0.00 0.00 0.00 89 1009.6
20210926065212 13 180 0.0 3.2 0.00 0.00 0.00 89 1009.5
20210926064611 13 180 4.8 4.8 0.00 0.00 0.00 88 1009.5
20210926064310 13 180 0.0 0.0 0.00 0.00 0.00 88 1009.5
20210926064009 13 180 0.0 0.0 0.00 0.00 0.00 88 1009.5
20210926063708 13 180 0.0 0.0 0.00 0.00 0.00 88 1009.5
20210926063407 13 180 0.0 0.0 0.00 0.00 0.00 88 1009.6
20210926063106 13 180 0.0 0.0 0.00 0.00 0.00 88 1009.6
20210926062503 13 180 0.0 0.0 0.00 0.00 0.00 88 1009.6
20210926062201 13 180 0.0 0.0 0.00 0.00 0.00 87 1009.6